EW9273 Weather Reports


Display with metric or nautical units.
time (UTC)temp
F
wind
direction
speed
MPH
gust
MPH
rain 1hr
in
rain 24hr
in
rain mn
in
humidity
%
barometer
mb
20260831222543 98 59 0.0 9.0 0.00 0.00 0.00 39 1009.5
20260831222041 99 58 4.0 9.0 0.00 0.00 0.00 39 1009.5
20260831221541 100 116 1.0 6.0 0.00 0.00 0.00 38 1009.5
20260831221041 100 293 1.0 6.0 0.00 0.00 0.00 38 1009.5
20260831220544 98 157 1.0 7.0 0.00 0.00 0.00 39 1009.6
20260831220042 98 166 4.0 7.0 0.00 0.00 0.00 39 1009.7
20260831215540 100 150 1.0 9.0 0.00 0.00 0.00 37 1009.8
20260831215039 99 201 2.0 9.0 0.00 0.00 0.00 38 1010.0
20260831214554 99 110 4.0 9.0 0.00 0.00 0.00 38 1010.0
20260831214038 99 29 4.0 12.0 0.00 0.00 0.00 38 1010.1
20260831213538 100 192 4.0 12.0 0.00 0.00 0.00 39 1010.1
20260831213037 100 138 2.0 7.0 0.00 0.00 0.00 39 1010.1
20260831212536 100 101 3.0 7.0 0.00 0.00 0.00 38 1010.2
20260831212038 100 32 2.0 6.0 0.00 0.00 0.00 38 1010.3
20260831211535 99 76 2.0 6.0 0.00 0.00 0.00 39 1010.3
20260831211033 99 97 4.0 6.0 0.00 0.00 0.00 38 1010.4
20260831210532 99 88 2.0 6.0 0.00 0.00 0.00 39 1010.5
20260831210038 99 98 2.0 6.0 0.00 0.00 0.00 40 1010.5
20260831205532 99 238 3.0 10.0 0.00 0.00 0.00 39 1010.6
20260831205031 99 158 2.0 11.0 0.00 0.00 0.00 39 1010.7
20260831204533 99 16 2.0 9.0 0.00 0.00 0.00 40 1010.8
20260831204031 99 99 2.0 11.0 0.00 0.00 0.00 41 1010.9
20260831203529 99 188 3.0 11.0 0.00 0.00 0.00 41 1010.9
20260831203029 99 23 1.0 6.0 0.00 0.00 0.00 41 1011.0
20260831202528 100 69 2.0 5.0 0.00 0.00 0.00 40 1011.2
20260831202027 99 40 2.0 13.0 0.00 0.00 0.00 41 1011.2
20260831201526 99 76 3.0 13.0 0.00 0.00 0.00 40 1011.4
20260831201026 100 30 4.0 10.0 0.00 0.00 0.00 39 1011.4
20260831200524 100 67 2.0 10.0 0.00 0.00 0.00 40 1011.5
20260831200025 99 134 3.0 14.0 0.00 0.00 0.00 41 1011.5
20260831195522 98 185 3.0 14.0 0.00 0.00 0.00 40 1011.7
20260831195022 99 165 1.0 8.0 0.00 0.00 0.00 41 1011.7
20260831194520 98 31 1.0 8.0 0.00 0.00 0.00 41 1011.9
20260831194020 99 69 2.0 8.0 0.00 0.00 0.00 42 1012.0
20260831193518 98 329 2.0 9.0 0.00 0.00 0.00 43 1012.0
20260831193029 96 188 2.0 10.0 0.00 0.00 0.00 45 1012.1
20260831192518 95 107 3.0 10.0 0.00 0.00 0.00 45 1012.2
20260831192017 96 66 3.0 9.0 0.00 0.00 0.00 44 1012.2
20260831191517 98 33 3.0 8.0 0.00 0.00 0.00 43 1012.3
20260831191016 96 51 1.0 8.0 0.00 0.00 0.00 43 1012.4
20260831190516 98 82 1.0 11.0 0.00 0.00 0.00 44 1012.5
20260831190023 96 173 5.0 11.0 0.00 0.00 0.00 44 1012.6
20260831185518 96 155 1.0 7.0 0.00 0.00 0.00 44 1012.6
20260831185015 97 101 2.0 7.0 0.00 0.00 0.00 43 1012.7
20260831184514 98 107 2.0 6.0 0.00 0.00 0.00 42 1012.6
20260831184014 96 182 2.0 9.0 0.00 0.00 0.00 45 1012.7
20260831183513 97 71 3.0 9.0 0.00 0.00 0.00 44 1012.7
20260831183014 97 120 2.0 9.0 0.00 0.00 0.00 46 1012.8
20260831182514 95 57 5.0 9.0 0.00 0.00 0.00 46 1012.9
20260831182012 94 120 3.0 9.0 0.00 0.00 0.00 47 1012.8
20260831181515 93 68 2.0 10.0 0.00 0.00 0.00 48 1012.8
20260831181011 94 54 3.0 10.0 0.00 0.00 0.00 48 1012.8
20260831180509 94 175 3.0 7.0 0.00 0.00 0.00 48 1012.9
20260831180011 95 228 1.0 10.0 0.00 0.00 0.00 48 1013.0
20260831175510 96 36 2.0 10.0 0.00 0.00 0.00 47 1013.0
20260831175009 94 103 2.0 10.0 0.00 0.00 0.00 49 1013.2
20260831174509 93 144 2.0 8.0 0.00 0.00 0.00 50 1013.3
20260831174008 94 177 4.0 9.0 0.00 0.00 0.00 48 1013.3
20260831173506 95 214 1.0 8.0 0.00 0.00 0.00 48 1013.4
20260831173014 94 135 3.0 9.0 0.00 0.00 0.00 48 1013.4
20260831172505 92 41 2.0 9.0 0.00 0.00 0.00 52 1013.4
20260831172004 93 119 2.0 8.0 0.00 0.00 0.00 50 1013.5
20260831171506 94 159 1.0 5.0 0.00 0.00 0.00 51 1013.5
20260831171005 93 16 0.0 6.0 0.00 0.00 0.00 52 1013.5
20260831170501 93 148 2.0 6.0 0.00 0.00 0.00 52 1013.6
20260831170100 92 221 1.0 5.0 0.00 0.00 0.00 54 1013.5
20260831165600 91 112 0.0 8.0 0.00 0.00 0.00 55 1013.6
20260831165059 91 151 4.0 8.0 0.00 0.00 0.00 55 1013.6
20260831164610 91 11 2.0 7.0 0.00 0.00 0.00 55 1013.7
20260831164057 92 188 2.0 7.0 0.00 0.00 0.00 54 1013.7
20260831163557 91 126 2.0 5.0 0.00 0.00 0.00 57 1013.7
20260831163059 90 131 1.0 8.0 0.00 0.00 0.00 58 1013.6
20260831162555 90 249 2.0 9.0 0.00 0.00 0.00 58 1013.6
20260831162053 90 144 3.0 9.0 0.00 0.00 0.00 58 1013.7
20260831161603 89 61 2.0 8.0 0.00 0.00 0.00 60 1013.7
20260831161051 88 129 3.0 8.0 0.00 0.00 0.00 61 1013.7
20260831160548 88 185 3.0 11.0 0.00 0.00 0.00 62 1013.7
20260831155548 88 116 1.0 5.0 0.00 0.00 0.00 64 1013.9
20260831155045 87 135 1.0 9.0 0.00 0.00 0.00 64 1013.8
20260831154552 87 196 4.0 9.0 0.00 0.00 0.00 64 1013.8
20260831154044 87 150 2.0 8.0 0.00 0.00 0.00 65 1013.7
20260831153540 87 97 1.0 9.0 0.00 0.00 0.00 66 1013.6
20260831153042 86 144 1.0 9.0 0.00 0.00 0.00 66 1013.6
20260831152543 86 150 3.0 8.0 0.00 0.00 0.00 66 1013.6
20260831152037 86 186 3.0 9.0 0.00 0.00 0.00 67 1013.6
20260831151537 86 71 3.0 9.0 0.00 0.00 0.00 67 1013.6
20260831151034 86 140 2.0 7.0 0.00 0.00 0.00 68 1013.6
20260831150533 85 124 3.0 7.0 0.00 0.00 0.00 70 1013.6
20260831150031 85 155 3.0 6.0 0.00 0.00 0.00 69 1013.6
20260831145530 85 135 3.0 6.0 0.00 0.00 0.00 71 1013.6
20260831145029 84 157 0.0 6.0 0.00 0.00 0.00 73 1013.6
20260831144528 83 175 2.0 7.0 0.00 0.00 0.00 74 1013.6
20260831144027 83 138 2.0 7.0 0.00 0.00 0.00 73 1013.6
20260831143525 83 142 2.0 6.0 0.00 0.00 0.00 75 1013.5
20260831143025 82 196 1.0 6.0 0.00 0.00 0.00 77 1013.5
20260831142523 82 153 1.0 6.0 0.00 0.00 0.00 78 1013.5
20260831142023 82 141 1.0 6.0 0.00 0.00 0.00 78 1013.5
20260831141522 82 140 2.0 6.0 0.00 0.00 0.00 79 1013.5
20260831141021 81 144 1.0 6.0 0.00 0.00 0.00 80 1013.5
20260831140520 81 138 0.0 5.0 0.00 0.00 0.00 80 1013.5
20260831140020 81 71 2.0 5.0 0.00 0.00 0.00 80 1013.4
20260831135520 81 66 1.0 4.0 0.00 0.00 0.00 81 1013.3
20260831135020 81 72 1.0 4.0 0.00 0.00 0.00 81 1013.3
20260831134519 81 182 0.0 4.0 0.00 0.00 0.00 83 1013.3
20260831134016 80 67 0.0 4.0 0.00 0.00 0.00 84 1013.3
20260831133519 79 59 1.0 4.0 0.00 0.00 0.00 84 1013.2
20260831133015 79 59 1.0 4.0 0.00 0.00 0.00 84 1013.2
20260831132514 79 76 2.0 3.0 0.00 0.00 0.00 85 1013.2
20260831132014 78 76 0.0 2.0 0.00 0.00 0.00 85 1013.3
20260831131512 78 76 0.0 4.0 0.00 0.00 0.00 85 1013.2
20260831131011 78 76 0.0 4.0 0.00 0.00 0.00 85 1013.1
20260831130510 78 87 0.0 3.0 0.00 0.00 0.00 85 1013.1
20260831130009 78 161 0.0 2.0 0.00 0.00 0.00 85 1013.1
20260831125509 77 161 0.0 1.0 0.00 0.00 0.00 85 1013.0
20260831125009 77 161 0.0 1.0 0.00 0.00 0.00 85 1013.0
20260831124508 77 161 0.0 2.0 0.00 0.00 0.00 85 1013.0
20260831124006 77 161 0.0 2.0 0.00 0.00 0.00 85 1012.9
20260831123506 77 161 0.0 0.0 0.00 0.00 0.00 85 1012.8
20260831123004 77 161 0.0 1.0 0.00 0.00 0.00 85 1012.8
20260831122504 77 161 0.0 1.0 0.00 0.00 0.00 85 1012.8
20260831122003 77 161 0.0 1.0 0.00 0.00 0.00 85 1012.8
20260831121503 77 161 0.0 0.0 0.00 0.00 0.00 85 1012.8
20260831121003 77 161 0.0 0.0 0.00 0.00 0.00 85 1012.7
20260831120504 77 161 0.0 0.0 0.00 0.00 0.00 85 1012.7
20260831120008 77 161 0.0 0.0 0.00 0.00 0.00 85 1012.6
20260831115502 77 161 0.0 0.0 0.00 0.00 0.00 84 1012.5
20260831115002 77 161 0.0 1.0 0.00 0.00 0.00 84 1012.6
20260831114501 77 161 0.0 1.0 0.00 0.00 0.00 84 1012.5
20260831114001 77 161 0.0 0.0 0.00 0.00 0.00 84 1012.5
20260831113602 77 161 0.0 0.0 0.00 0.00 0.00 84 1012.6
20260831113101 77 161 0.0 1.0 0.00 0.00 0.00 84 1012.5
20260831113001 77 161 0.0 1.0 0.00 0.00 0.00 84 1012.5
20260831112559 77 161 0.0 1.0 0.00 0.00 0.00 84 1012.5
20260831112059 77 161 0.0 0.0 0.00 0.00 0.00 84 1012.5
20260831111604 77 161 0.0 0.0 0.00 0.00 0.00 84 1012.4
20260831111058 77 161 0.0 0.0 0.00 0.00 0.00 83 1012.4
20260831110558 77 161 0.0 0.0 0.00 0.00 0.00 83 1012.5
20260831110057 77 161 0.0 0.0 0.00 0.00 0.00 83 1012.5
20260831105558 77 161 0.0 0.0 0.00 0.00 0.00 83 1012.5
20260831105056 77 161 0.0 1.0 0.00 0.00 0.00 83 1012.4
20260831104557 77 161 0.0 1.0 0.00 0.00 0.00 83 1012.5
20260831104057 78 161 0.0 1.0 0.00 0.00 0.00 83 1012.5
20260831103555 78 161 0.0 0.0 0.00 0.00 0.00 83 1012.4
20260831103057 78 161 0.0 0.0 0.00 0.00 0.00 83 1012.4
20260831102555 78 161 0.0 1.0 0.00 0.00 0.00 83 1012.4
20260831102055 78 161 0.0 2.0 0.00 0.00 0.00 83 1012.5
20260831101556 78 161 1.0 2.0 0.00 0.00 0.00 83 1012.6
20260831101053 78 161 1.0 2.0 0.00 0.00 0.00 83 1012.6
20260831100554 78 161 0.0 1.0 0.00 0.00 0.00 82 1012.6
20260831100106 78 161 0.0 0.0 0.00 0.00 0.00 82 1012.5
20260831095557 78 161 0.0 0.0 0.00 0.00 0.00 82 1012.6
20260831095053 78 161 0.0 1.0 0.00 0.00 0.00 82 1012.6
20260831094553 78 161 0.0 1.0 0.00 0.00 0.00 82 1012.5
20260831094053 78 161 0.0 2.0 0.00 0.00 0.00 82 1012.5
20260831093552 78 161 0.0 3.0 0.00 0.00 0.00 82 1012.5
20260831093057 78 161 1.0 3.0 0.00 0.00 0.00 81 1012.5
20260831092551 78 161 0.0 3.0 0.00 0.00 0.00 81 1012.5
20260831092050 79 161 0.0 3.0 0.00 0.00 0.00 81 1012.6
20260831091551 79 161 0.0 2.0 0.00 0.00 0.00 81 1012.6
20260831091050 79 161 0.0 1.0 0.00 0.00 0.00 81 1012.6
20260831090550 79 161 0.0 2.0 0.00 0.00 0.00 81 1012.6
20260831090058 79 161 1.0 3.0 0.00 0.00 0.00 81 1012.6
20260831085553 79 161 1.0 3.0 0.00 0.00 0.00 81 1012.6
20260831085053 79 161 0.0 1.0 0.00 0.00 0.00 81 1012.6
20260831084548 79 161 0.0 0.0 0.00 0.00 0.00 81 1012.6
20260831084052 79 161 0.0 3.0 0.00 0.00 0.00 81 1012.7
20260831083548 79 161 0.0 3.0 0.00 0.00 0.00 81 1012.7
20260831083103 79 161 0.0 3.0 0.00 0.00 0.00 81 1012.6
20260831082548 79 161 1.0 3.0 0.00 0.00 0.00 81 1012.6
20260831082048 79 161 1.0 3.0 0.00 0.00 0.00 80 1012.7
20260831081556 79 161 0.0 3.0 0.00 0.00 0.00 80 1012.8
20260831081047 79 161 0.0 1.0 0.00 0.00 0.00 80 1012.8
20260831080546 79 161 0.0 2.0 0.00 0.00 0.00 80 1012.8
20260831080120 79 161 0.0 2.0 0.00 0.00 0.00 80 1012.8
20260831075545 79 161 0.0 3.0 0.00 0.00 0.00 80 1012.9
20260831075045 79 161 0.0 3.0 0.00 0.00 0.00 79 1012.9
20260831074545 79 138 0.0 2.0 0.00 0.00 0.00 79 1012.8
20260831074045 79 138 0.0 6.0 0.00 0.00 0.00 79 1012.7
20260831073544 79 134 1.0 6.0 0.00 0.00 0.00 79 1012.6
20260831073044 79 165 1.0 4.0 0.00 0.00 0.00 79 1012.6
20260831072543 79 146 1.0 4.0 0.00 0.00 0.00 79 1012.6
20260831072043 79 150 1.0 4.0 0.00 0.00 0.00 78 1012.6
20260831071546 80 173 1.0 4.0 0.00 0.00 0.00 78 1012.7
20260831071041 80 131 0.0 3.0 0.00 0.00 0.00 78 1012.7
20260831070545 80 134 0.0 4.0 0.00 0.00 0.00 78 1012.7
20260831070042 80 163 0.0 4.0 0.00 0.00 0.00 77 1012.8
20260831065541 80 167 2.0 5.0 0.00 0.00 0.00 77 1012.8
20260831065040 80 167 1.0 5.0 0.00 0.00 0.00 77 1012.8
20260831064540 80 160 0.0 5.0 0.00 0.00 0.00 77 1012.7
20260831064039 80 144 2.0 6.0 0.00 0.00 0.00 77 1012.8
20260831063538 80 141 1.0 7.0 0.00 0.00 0.00 76 1012.8
20260831063038 80 157 0.0 5.0 0.00 0.00 0.00 76 1012.9
20260831062537 80 103 2.0 6.0 0.00 0.00 0.00 76 1012.9
20260831062037 81 112 2.0 6.0 0.00 0.00 0.00 76 1012.8
20260831061539 81 169 2.0 5.0 0.00 0.00 0.00 75 1012.8
20260831061037 81 129 2.0 4.0 0.00 0.00 0.00 75 1012.8
20260831060536 81 164 1.0 7.0 0.00 0.00 0.00 75 1012.8
20260831060034 81 114 3.0 7.0 0.00 0.00 0.00 74 1012.8
20260831055534 81 148 1.0 4.0 0.00 0.00 0.00 74 1012.8
20260831055038 81 115 1.0 6.0 0.00 0.00 0.00 74 1012.7
20260831054533 81 171 1.0 11.0 0.00 0.00 0.00 73 1012.7
20260831054033 81 142 4.0 11.0 0.00 0.00 0.00 73 1012.7
20260831053532 82 94 2.0 8.0 0.00 0.00 0.00 72 1012.6
20260831053041 82 174 2.0 8.0 0.00 0.00 0.00 72 1012.6
20260831052530 82 132 2.0 10.0 0.00 0.00 0.00 71 1012.6
20260831052027 82 139 3.0 10.0 0.00 0.00 0.00 71 1012.5
20260831051532 82 100 2.0 8.0 0.00 0.00 0.00 70 1012.5
20260831051025 82 149 3.0 9.0 0.00 0.00 0.00 69 1012.5
20260831050525 83 108 3.0 11.0 0.00 0.00 0.00 68 1012.6
20260831050024 83 65 2.0 8.0 0.00 0.00 0.00 68 1012.5
20260831045523 83 96 3.0 8.0 0.00 0.00 0.00 67 1012.5
20260831045026 83 164 3.0 7.0 0.00 0.00 0.00 66 1012.4
20260831044545 83 165 3.0 9.0 0.00 0.00 0.00 66 1012.3
20260831044022 83 111 3.0 9.0 0.00 0.00 0.00 65 1012.4
20260831043525 84 96 3.0 10.0 0.00 0.00 0.00 65 1012.3
20260831043022 84 90 1.0 10.0 0.00 0.00 0.00 64 1012.3
20260831042523 84 156 2.0 11.0 0.00 0.00 0.00 64 1012.2
20260831042022 84 184 2.0 6.0 0.00 0.00 0.00 63 1012.1
20260831041531 84 142 1.0 9.0 0.00 0.00 0.00 63 1012.1
20260831041021 85 103 2.0 9.0 0.00 0.00 0.00 62 1012.1
20260831040521 85 109 1.0 6.0 0.00 0.00 0.00 62 1012.0
20260831040023 85 113 2.0 8.0 0.00 0.00 0.00 61 1011.9
20260831035521 85 130 2.0 10.0 0.00 0.00 0.00 61 1012.1
20260831035022 85 158 2.0 8.0 0.00 0.00 0.00 60 1012.1
20260831034521 86 136 3.0 8.0 0.00 0.00 0.00 60 1012.0
20260831034021 86 130 2.0 8.0 0.00 0.00 0.00 60 1011.9
20260831033521 86 142 2.0 10.0 0.00 0.00 0.00 59 1011.9
20260831033023 86 95 4.0 10.0 0.00 0.00 0.00 58 1011.8
20260831032520 86 138 1.0 10.0 0.00 0.00 0.00 58 1011.8
20260831032020 87 174 4.0 9.0 0.00 0.00 0.00 57 1011.7
20260831031531 87 148 2.0 9.0 0.00 0.00 0.00 57 1011.7
20260831031019 87 188 2.0 7.0 0.00 0.00 0.00 56 1011.7
20260831030521 87 69 2.0 11.0 0.00 0.00 0.00 56 1011.5
20260831030019 87 130 3.0 11.0 0.00 0.00 0.00 55 1011.4
20260831025518 87 88 3.0 11.0 0.00 0.00 0.00 55 1011.3
20260831025019 88 144 3.0 11.0 0.00 0.00 0.00 55 1011.2
20260831024519 88 158 3.0 11.0 0.00 0.00 0.00 55 1011.0
20260831024018 88 128 1.0 10.0 0.00 0.00 0.00 54 1011.0
20260831023518 88 157 2.0 10.0 0.00 0.00 0.00 54 1010.8
20260831023018 88 169 3.0 7.0 0.00 0.00 0.00 54 1010.8
20260831022518 89 151 2.0 11.0 0.00 0.00 0.00 54 1010.6
20260831022020 89 80 3.0 11.0 0.00 0.00 0.00 54 1010.5
20260831021519 89 141 1.0 10.0 0.00 0.00 0.00 54 1010.3
20260831021017 89 105 3.0 10.0 0.00 0.00 0.00 54 1010.3
20260831020517 89 86 3.0 9.0 0.00 0.00 0.00 54 1010.2
20260831020117 89 167 1.0 10.0 0.00 0.00 0.00 54 1010.2
20260831015517 90 102 2.0 10.0 0.00 0.00 0.00 53 1010.1
20260831015016 90 163 2.0 10.0 0.00 0.00 0.00 53 1010.1
20260831014518 90 140 3.0 9.0 0.00 0.00 0.00 53 1010.1
20260831014017 90 98 3.0 8.0 0.00 0.00 0.00 52 1009.9
20260831013515 90 191 3.0 14.0 0.00 0.00 0.00 52 1009.9
20260831013016 91 112 3.0 14.0 0.00 0.00 0.00 52 1009.9
20260831012516 91 170 2.0 8.0 0.00 0.00 0.00 52 1009.9
20260831012015 91 105 2.0 9.0 0.00 0.00 0.00 52 1009.8
20260831011516 91 132 3.0 9.0 0.00 0.00 0.00 52 1009.8
20260831011015 91 53 3.0 8.0 0.00 0.00 0.00 53 1009.7
20260831010514 91 54 2.0 10.0 0.00 0.00 0.00 53 1009.6
20260831010014 91 77 2.0 10.0 0.00 0.00 0.00 52 1009.6
20260831005515 91 159 2.0 10.0 0.00 0.00 0.00 52 1009.6
20260831005017 91 118 2.0 10.0 0.00 0.00 0.00 52 1009.4
20260831004514 92 119 4.0 13.0 0.00 0.00 0.00 51 1009.4
20260831004014 92 83 3.0 13.0 0.00 0.00 0.00 51 1009.3
20260831003518 93 154 3.0 13.0 0.00 0.00 0.00 50 1009.2
20260831003018 94 85 3.0 13.0 0.00 0.00 0.00 49 1009.2
20260831002512 94 95 2.0 9.0 0.00 0.00 0.00 46 1009.1
20260831002013 95 82 2.0 9.0 0.00 0.00 0.00 45 1009.0
20260831001513 95 66 3.0 12.0 0.00 0.00 0.00 45 1009.1
20260831001012 95 98 6.0 12.0 0.00 0.00 0.00 45 1009.1
20260831000512 96 63 5.0 12.0 0.00 0.00 0.00 44 1009.0
20260831000019 96 73 2.0 17.0 0.00 0.00 0.00 44 1009.1
20260830235512 96 49 5.0 17.0 0.00 0.00 0.00 43 1009.0
20260830235011 97 98 5.0 14.0 0.00 0.00 0.00 42 1008.9
20260830234512 97 86 6.0 11.0 0.00 0.00 0.00 41 1008.9
20260830234011 98 123 3.0 6.0 0.00 0.00 0.00 40 1008.9
20260830233511 97 206 3.0 10.0 0.00 0.00 0.00 41 1008.9
20260830233011 97 73 3.0 10.0 0.00 0.00 0.00 40 1008.9
20260830232511 98 107 3.0 13.0 0.00 0.00 0.00 40 1008.9
20260830232011 98 82 6.0 13.0 0.00 0.00 0.00 40 1008.8
20260830231515 98 69 5.0 11.0 0.00 0.00 0.00 39 1008.9
20260830231010 98 348 5.0 11.0 0.00 0.00 0.00 38 1008.9
20260830230509 99 34 2.0 4.0 0.00 0.00 0.00 38 1009.0
20260830230008 99 65 1.0 6.0 0.00 0.00 0.00 37 1009.0
20260830225508 99 90 2.0 7.0 0.00 0.00 0.00 37 1009.0
20260830225007 99 150 3.0 7.0 0.00 0.00 0.00 38 1009.1
20260830224508 99 148 2.0 8.0 0.00 0.00 0.00 37 1009.1
20260830224007 99 82 3.0 8.0 0.00 0.00 0.00 37 1009.1
20260830223507 99 99 3.0 7.0 0.00 0.00 0.00 36 1009.2
20260830223007 99 203 1.0 7.0 0.00 0.00 0.00 38 1009.2